Simultaneous Nadir Overpasses (SNOs) Predictions

Prediction of SNOs between METOP-B and TERRA Satellite Orbit:

Table of predicted SNOs for the next 14.0 days since TLE Epoch: 8/11/2016
Index Date (METOP-B) Time (METOP-B) Lat,Lon (METOP-B) SZA (METOP-B ) Date (TERRA) Time (TERRA) Lat,Lon (TERRA) SZA (TERRA ) Distance(km) Time Diff (sec)
1 08/12/2016 23:10:12 81.28,-120.69 69.37 08/12/2016 23:10:21 81.28,-120.73 69.37 0.67 9
2 08/13/2016 00:00:53 -81.28, 46.70 110.62 08/12/2016 23:59:48 -81.28, 46.89 110.63 3.28 65
3 08/15/2016 17:53:58 -81.26, 137.70 109.85 08/15/2016 17:55:09 -81.26, 137.81 109.80 1.79 71
4 08/15/2016 18:44:37 81.27, -54.43 70.23 08/15/2016 18:44:35 81.26, -54.54 70.21 2.09 2
5 08/18/2016 13:28:21 -81.27,-155.62 108.90 08/18/2016 13:29:21 -81.27,-155.66 108.88 0.67 60
6 08/18/2016 14:19:01 81.27, 11.82 71.13 08/18/2016 14:18:47 81.27, 11.98 71.14 2.74 14
7 08/21/2016 09:02:46 -81.27, -89.35 107.97 08/21/2016 09:03:34 -81.27, -89.18 107.93 2.90 48
8 08/21/2016 09:53:25 81.27, 78.44 72.10 08/21/2016 09:53:00 81.27, 78.45 72.08 0.55 25
9 08/24/2016 04:37:10 -81.27, -22.71 106.98 08/24/2016 04:37:47 -81.27, -22.76 106.96 0.75 37




NCC Satellite Simultaneous Nadir Overpasses (SNOs) Prediction Service
